[[{"header":{"parameterUnit":"m.s-1","parameterCategory":1,"la1":30.2991,"la2":30.254,"lo1":-89.0895,"lo2":-89.0444,"dy":0.0017,"dx":0.0017,"nx":28,"ny":28,"refTime":"2025-09-06T21:00:00:Z","depth":0,"parameterNumber":2,"parameterNumberName":"U-component_of_WINDS"},"data":[0,0,0,0,0,0,0,0,0,0,0,0,0,0,0,0,0,0,0,0,0,0,0,0,0,0,0,0,0,0,0,0,0,0,0,0,0,0,0,0,0,0,0,0,0,0,0,0,0,0,0,0,0,0,0,0,0,0,-2.3298,-2.3298,0,-2.3335,-2.3336,-2.3336,-2.3286,-2.3285,-2.3283,-2.3281,-2.3321,-2.3324,-2.3326,0,0,0,0,0,0,0,0,0,0,0,0,0,-2.3185,-2.3187,-2.3298,-2.3298,-2.3299,-2.3335,-2.3336,-2.3336,-2.3287,-2.3285,-2.3282,-2.328,-2.332,-2.3323,-2.3327,0,0,0,0,0,0,0,0,0,0,0,0,0,-2.3229,-2.3188,-2.3298,-2.3278,-2.3277,-2.3335,-2.3336,-2.3336,-2.3287,-2.3285,-2.3282,-2.3279,-2.3319,-2.3323,-2.3327,-2.3406,0,0,-2.334,-2.3341,0,0,0,0,0,0,0,0,-2.3227,-2.3233,-2.3281,-2.328,-2.3278,-2.3303,-2.331,-2.336,-2.3288,-2.3283,-2.3281,-2.3278,-2.3317,-2.3321,-2.3334,-2.3408,-2.341,-2.334,-2.3342,-2.3344,-2.3345,0,0,0,0,0,0,0,-2.3224,-2.3232,-2.3313,-2.3282,-2.328,-2.3268,-2.3272,-2.3319,-2.3315,-2.3284,-2.328,-2.3285,-2.3316,-2.3331,-2.3335,-2.341,-2.334,-2.3343,-2.3346,-2.3348,-2.3551,-2.3554,0,0,0,0,0,0,-2.3223,-2.3229,-2.3311,-2.3314,-2.3245,-2.3273,-2.3276,-2.3298,-2.3314,-2.3314,-2.3287,-2.3283,-2.3325,-2.333,-2.3336,-2.3431,-2.3344,-2.3348,-2.335,-2.3549,-2.3552,-2.3555,0,0,0,0,0,0,-2.3221,-2.3231,-2.331,-2.3271,-2.328,-2.3277,-2.3302,-2.33,-2.3315,-2.3317,-2.3316,-2.3303,-2.3323,-2.333,-2.3389,-2.3432,-2.335,-2.3354,-2.3545,-2.355,-2.3554,-2.3621,0,0,0,0,0,0,-2.3218,-2.323,-2.326,-2.3272,-2.3282,-2.3362,-2.3305,-2.3303,-2.3322,-2.3316,-2.3332,-2.3332,-2.3321,-2.3383,-2.3393,-2.3436,-2.3357,-2.3541,-2.3547,-2.3552,-2.3615,-2.3627,-2.3637,0,0,0,0,0,-2.3214,-2.3277,-2.3262,-2.3272,-2.3319,-2.3365,-2.3371,-2.3358,-2.3325,-2.3356,-2.3357,-2.3331,-2.3425,-2.339,-2.3401,-2.3445,-2.3539,-2.3545,-2.3552,-2.361,-2.3624,-2.3637,0,0,0,0,0,0,-2.3271,-2.3279,-2.3261,-2.3331,-2.3348,-2.3356,-2.3394,-2.3373,-2.34,-2.3394,-2.3376,-2.338,-2.3443,-2.345,-2.341,-2.3523,-2.3476,-2.3486,-2.3517,-2.3531,-2.3542,-2.354,-2.336,0,0,0,0,0,-2.3292,-2.3328,-2.3332,-2.3393,-2.3402,-2.3397,-2.3416,-2.3404,-2.3421,-2.3428,-2.3434,-2.3452,-2.3486,-2.3508,-2.3539,-2.3614,-2.3618,-2.365,-2.3662,-2.3671,-2.368,-2.3721,-2.3736,-2.3577,-2.3577,-2.3577,0,0,-2.3336,-2.3344,-2.3368,-2.3405,-2.3417,-2.3455,-2.3403,-2.3446,-2.3474,-2.3435,-2.3491,-2.3496,-2.3515,-2.3583,-2.3613,-2.359,-2.3724,-2.3679,-2.3687,-2.369,-2.3729,-2.3745,-2.3758,-2.3582,-2.3581,-2.358,0,0,-2.3435,-2.3444,-2.3496,-2.3509,-2.3527,-2.3523,-2.3535,-2.3547,-2.3549,-2.3604,-2.3576,-2.3609,-2.3667,-2.3682,-2.3697,-2.3801,-2.3779,-2.3812,-2.3871,-2.3912,-2.3925,-2.3936,-2.3974,-2.3988,-2.382,-2.382,-2.382,0,-2.3487,-2.3543,-2.3526,-2.3571,-2.3588,-2.3553,-2.3607,-2.3619,-2.3647,-2.366,-2.3634,-2.3706,-2.3716,-2.3787,-2.3813,-2.3825,-2.384,-2.3811,-2.3924,-2.3935,-2.3945,-2.3982,-2.3996,-2.3824,-2.3824,-2.3823,-2.3823,0,-2.3607,-2.3646,-2.3686,-2.3713,-2.3735,-2.3784,-2.3775,-2.3799,-2.3785,-2.3783,-2.3841,-2.3851,-2.3884,-2.39,-2.3887,-2.397,-2.3955,-2.3926,-2.388,-2.3964,-2.3999,-2.4013,-2.383,-2.3828,-2.3827,-2.3826,0,0,-2.3745,-2.3761,-2.3777,-2.3789,-2.3806,-2.3836,-2.3883,-2.3915,-2.3937,-2.3956,-2.3996,-2.4045,-2.4019,-2.4036,-2.4024,-2.406,-2.4143,-2.4027,-2.4027,-2.405,-2.4237,-2.426,-2.4276,-2.4127,-2.413,-2.4132,-2.4236,0,-2.3845,-2.3927,-2.3913,-2.3992,-2.4029,-2.3996,-2.4037,-2.4052,-2.4052,-2.4083,-2.4083,-2.4119,-2.4081,-2.4091,-2.4124,-2.4126,-2.4181,-2.4118,-2.4166,-2.4168,-2.4164,-2.4294,-2.4318,-2.4416,-2.4249,-2.4251,-2.4253,0,-2.3974,-2.3998,-2.4082,-2.4093,-2.4108,-2.4145,-2.4173,-2.4203,-2.422,-2.4217,-2.4236,-2.4217,-2.4265,-2.4216,-2.4282,-2.424,-2.4258,-2.4262,-2.4265,-2.4271,-2.4217,-2.4305,-2.4447,-2.4462,-2.4274,-2.4272,-2.427,0,-2.4069,-2.4122,-2.4179,-2.419,-2.4205,-2.4232,-2.4239,-2.4253,-2.4273,-2.4297,-2.431,-2.434,-2.4356,-2.438,-2.437,-2.4335,-2.4438,-2.4388,-2.4439,-2.4439,-2.4464,-2.4463,-2.4613,-2.4472,-2.4472,-2.4472,-2.4472,0,-2.4184,-2.4237,-2.4222,-2.4257,-2.4316,-2.4298,-2.4356,-2.436,-2.4372,-2.4408,-2.438,-2.4414,-2.4398,-2.4431,-2.4423,-2.448,-2.4487,-2.4487,-2.4485,-2.4491,-2.4492,-2.4505,-2.4498,-2.4476,-2.4475,-2.4474,-2.4474,0,-2.4301,-2.4293,-2.4353,-2.4361,-2.4365,-2.4407,-2.4415,-2.4448,-2.4445,-2.449,-2.45,-2.4496,-2.4534,-2.4525,-2.4566,-2.4561,-2.4633,-2.4621,-2.4628,-2.4626,-2.4677,-2.4673,-2.4842,-2.4864,-2.4708,-2.4709,-2.4711,0,-2.4376,-2.4415,-2.4428,-2.445,-2.4459,-2.4494,-2.4514,-2.4499,-2.4521,-2.4542,-2.4573,-2.4608,-2.4636,-2.4697,-2.4699,-2.473,-2.472,-2.4777,-2.4725,-2.473,-2.4723,-2.4722,-2.4726,-2.4788,-2.479,-2.4791,-2.4793,0,-2.451,-2.4504,-2.4534,-2.4563,-2.4588,-2.461,-2.4629,-2.4649,-2.4634,-2.4661,-2.4699,-2.472,-2.4762,-2.4797,-2.4826,-2.4834,-2.4812,-2.4809,-2.4822,-2.483,-2.4833,-2.4834,-2.4658,-2.4805,-2.4804,-2.4803,-2.4803,-2.4802,-2.461,-2.4644,-2.4658,-2.4693,-2.4705,-2.4724,-2.4756,-2.4757,-2.4788,-2.4821,-2.4809,-2.4853,-2.4868,-2.4905,-2.4916,-2.495,-2.4929,-2.4948,-2.4954,-2.4959,-2.4967,-2.4826,-2.4955,-2.4955,-2.4954,-2.4954,-2.4954,0,-2.4745,-2.4752,-2.4784,-2.4812,-2.4839,-2.4814,-2.4834,-2.4859,-2.4897,-2.4913,-2.494,-2.4984,-2.5018,-2.5022,-2.5054,-2.5081,-2.5072,-2.509,-2.5089,-2.5092,-2.4983,-2.4969,-2.5097,-2.5097,-2.5097,-2.5097,-2.5097,-2.5097,-2.4818,-2.4875,-2.4871,-2.4934,-2.494,-2.4983,-2.4997,-2.5014,-2.5027,-2.5077,-2.5105,-2.5106,-2.5118,-2.515,-2.5181,-2.5181,-2.5195,-2.5218,-2.5215,-2.5114,-2.5099,-2.5086,-2.5073,-2.5221,-2.5221,-2.5321,-2.5322,-2.5323]},{"header":{"parameterUnit":"m.s-1","parameterCategory":1,"la1":30.2991,"la2":30.254,"lo1":-89.0895,"lo2":-89.0444,"dy":0.0017,"dx":0.0017,"nx":28,"ny":28,"refTime":"2025-09-06T21:00:00:Z","depth":0,"parameterNumber":3,"parameterNumberName":"V-component_of_WINDS"},"data":[0,0,0,0,0,0,0,0,0,0,0,0,0,0,0,0,0,0,0,0,0,0,0,0,0,0,0,0,0,0,0,0,0,0,0,0,0,0,0,0,0,0,0,0,0,0,0,0,0,0,0,0,0,0,0,0,0,0,-5.093,-5.093,0,-5.0935,-5.0935,-5.0935,-5.0871,-5.0869,-5.0867,-5.0865,-5.0869,-5.0871,-5.0872,0,0,0,0,0,0,0,0,0,0,0,0,0,-5.0864,-5.0865,-5.093,-5.093,-5.0931,-5.0935,-5.0935,-5.0935,-5.0871,-5.0869,-5.0867,-5.0865,-5.0868,-5.087,-5.0873,0,0,0,0,0,0,0,0,0,0,0,0,0,-5.0883,-5.0866,-5.093,-5.0899,-5.0896,-5.0935,-5.0935,-5.0935,-5.0871,-5.0869,-5.0866,-5.0864,-5.0868,-5.087,-5.0873,-5.0942,0,0,-5.0881,-5.0882,0,0,0,0,0,0,0,0,-5.0882,-5.0886,-5.0904,-5.0901,-5.0898,-5.09,-5.0913,-5.0937,-5.0872,-5.0881,-5.0865,-5.0862,-5.0881,-5.0883,-5.0889,-5.0942,-5.0942,-5.0881,-5.0883,-5.0884,-5.0884,0,0,0,0,0,0,0,-5.0881,-5.0885,-5.0932,-5.0904,-5.0901,-5.0884,-5.0884,-5.0917,-5.0896,-5.088,-5.0875,-5.0877,-5.0879,-5.0887,-5.0889,-5.0942,-5.0881,-5.0883,-5.0885,-5.0886,-5.1052,-5.1054,0,0,0,0,0,0,-5.0884,-5.0884,-5.0932,-5.0932,-5.0884,-5.0887,-5.0887,-5.0902,-5.0895,-5.0892,-5.0879,-5.0874,-5.0884,-5.0886,-5.0889,-5.0969,-5.0884,-5.0886,-5.0888,-5.1049,-5.1052,-5.1055,0,0,0,0,0,0,-5.0883,-5.0889,-5.0932,-5.0907,-5.0911,-5.0891,-5.0908,-5.0903,-5.0911,-5.0895,-5.089,-5.0891,-5.0882,-5.0885,-5.0929,-5.0968,-5.0887,-5.089,-5.1045,-5.105,-5.1054,-5.113,0,0,0,0,0,0,-5.0881,-5.0889,-5.0915,-5.0908,-5.0913,-5.0973,-5.0911,-5.0905,-5.0916,-5.0909,-5.0905,-5.0901,-5.088,-5.0926,-5.0932,-5.097,-5.0892,-5.1042,-5.1047,-5.1052,-5.1124,-5.1136,-5.1147,0,0,0,0,0,-5.0879,-5.0936,-5.0917,-5.0923,-5.0946,-5.0975,-5.0978,-5.0953,-5.0919,-5.0945,-5.0935,-5.0901,-5.0963,-5.0931,-5.0937,-5.0977,-5.1039,-5.1046,-5.1052,-5.1119,-5.1134,-5.1147,0,0,0,0,0,0,-5.0947,-5.0935,-5.0913,-5.097,-5.0974,-5.0964,-5.0996,-5.0969,-5.0983,-5.0976,-5.0944,-5.0943,-5.0993,-5.0989,-5.0953,-5.1043,-5.0995,-5.1003,-5.1044,-5.1058,-5.1069,-5.1069,-5.0894,0,0,0,0,0,-5.0969,-5.0995,-5.0982,-5.1033,-5.1037,-5.1017,-5.1028,-5.1009,-5.1012,-5.1013,-5.1006,-5.101,-5.103,-5.1044,-5.1061,-5.1123,-5.1121,-5.1154,-5.1165,-5.1175,-5.1182,-5.1215,-5.1229,-5.1076,-5.1076,-5.1076,0,0,-5.1014,-5.101,-5.1029,-5.1047,-5.1048,-5.1075,-5.1018,-5.1049,-5.1069,-5.1017,-5.1059,-5.1054,-5.1056,-5.1109,-5.1133,-5.1108,-5.1224,-5.1183,-5.1191,-5.1193,-5.1223,-5.1237,-5.125,-5.1081,-5.108,-5.1079,0,0,-5.111,-5.111,-5.1153,-5.1155,-5.1158,-5.1144,-5.1154,-5.1149,-5.1144,-5.1185,-5.1147,-5.117,-5.1205,-5.1208,-5.1214,-5.1312,-5.1282,-5.1319,-5.1379,-5.1411,-5.1423,-5.1434,-5.1469,-5.1481,-5.1326,-5.1326,-5.1326,0,-5.1166,-5.1205,-5.1178,-5.1212,-5.1221,-5.1176,-5.1219,-5.1223,-5.1231,-5.1238,-5.121,-5.1254,-5.1253,-5.1306,-5.133,-5.1337,-5.1347,-5.1319,-5.1424,-5.1434,-5.1443,-5.1476,-5.149,-5.1331,-5.133,-5.133,-5.1329,0,-5.1273,-5.1302,-5.1336,-5.1346,-5.1358,-5.1397,-5.1375,-5.1391,-5.137,-5.1359,-5.1402,-5.1398,-5.1414,-5.1426,-5.1405,-5.1477,-5.1461,-5.1429,-5.138,-5.1463,-5.1493,-5.1506,-5.1337,-5.1335,-5.1334,-5.1333,0,0,-5.1412,-5.1407,-5.142,-5.1424,-5.1424,-5.1445,-5.1481,-5.1497,-5.1512,-5.1519,-5.1548,-5.1579,-5.155,-5.1557,-5.1537,-5.1565,-5.1643,-5.153,-5.1529,-5.1551,-5.1721,-5.1745,-5.176,-5.1623,-5.1625,-5.1627,-5.1721,0,-5.1506,-5.1567,-5.1544,-5.1607,-5.1633,-5.1591,-5.1622,-5.1626,-5.1616,-5.1636,-5.1626,-5.1649,-5.1608,-5.1612,-5.1638,-5.1628,-5.1677,-5.1621,-5.165,-5.1651,-5.1651,-5.1776,-5.1801,-5.189,-5.1733,-5.1735,-5.1736,0,-5.1623,-5.1635,-5.1702,-5.1697,-5.1707,-5.1736,-5.1749,-5.1769,-5.1772,-5.1763,-5.1771,-5.1745,-5.178,-5.1731,-5.1778,-5.1741,-5.1751,-5.1748,-5.1751,-5.1752,-5.1699,-5.1781,-5.1918,-5.1931,-5.1755,-5.1753,-5.1752,0,-5.1717,-5.1751,-5.1795,-5.18,-5.1796,-5.1817,-5.1816,-5.1816,-5.1828,-5.1839,-5.1846,-5.1862,-5.187,-5.1882,-5.1861,-5.1827,-5.1911,-5.1861,-5.1905,-5.1905,-5.1924,-5.1923,-5.2064,-5.1931,-5.1931,-5.1931,-5.193,0,-5.1824,-5.1866,-5.1838,-5.1865,-5.1911,-5.1883,-5.1929,-5.1923,-5.1924,-5.1949,-5.1914,-5.1938,-5.1908,-5.1929,-5.1912,-5.1954,-5.1958,-5.1952,-5.1947,-5.1955,-5.1956,-5.1961,-5.1954,-5.1934,-5.1933,-5.1933,-5.1932,0,-5.1938,-5.192,-5.1965,-5.1958,-5.1957,-5.1991,-5.1985,-5.2009,-5.1998,-5.203,-5.2036,-5.2018,-5.2041,-5.2021,-5.2043,-5.2031,-5.2087,-5.2073,-5.2086,-5.2083,-5.2128,-5.2124,-5.2277,-5.2296,-5.2151,-5.2152,-5.2154,0,-5.2007,-5.2038,-5.2035,-5.2049,-5.2051,-5.2075,-5.2086,-5.206,-5.2074,-5.208,-5.2104,-5.2124,-5.2139,-5.2178,-5.2166,-5.2183,-5.2169,-5.2222,-5.2171,-5.2179,-5.217,-5.2168,-5.2171,-5.2232,-5.2234,-5.2235,-5.2236,0,-5.2131,-5.2121,-5.214,-5.2156,-5.2171,-5.2182,-5.219,-5.2204,-5.2177,-5.2195,-5.2218,-5.223,-5.2253,-5.2273,-5.2286,-5.2285,-5.2256,-5.2252,-5.2263,-5.2272,-5.2278,-5.2275,-5.2114,-5.2249,-5.2248,-5.2247,-5.2246,-5.2245,-5.2225,-5.2251,-5.2253,-5.2275,-5.2278,-5.2287,-5.231,-5.2301,-5.2321,-5.2338,-5.2321,-5.235,-5.2351,-5.2366,-5.2368,-5.239,-5.2368,-5.2384,-5.2388,-5.2392,-5.2399,-5.2275,-5.2392,-5.2392,-5.2392,-5.2391,-5.2391,0,-5.2348,-5.2347,-5.2367,-5.238,-5.2398,-5.237,-5.2378,-5.2394,-5.2419,-5.2424,-5.2439,-5.2466,-5.2486,-5.2477,-5.2494,-5.2513,-5.2501,-5.2519,-5.2517,-5.2517,-5.2418,-5.2406,-5.2528,-5.2528,-5.2528,-5.2528,-5.2528,-5.2528,-5.2414,-5.2456,-5.2447,-5.2491,-5.2489,-5.2518,-5.2525,-5.2532,-5.2536,-5.2568,-5.2584,-5.2578,-5.2577,-5.2594,-5.2611,-5.2607,-5.2615,-5.2638,-5.263,-5.2537,-5.2524,-5.2511,-5.25,-5.264,-5.264,-5.2727,-5.2728,-5.2729]}]]